• In Hungary
  • List of Countries
  • For 7 days
  • Water Temperature
  • Satellite Maps
  • Weather Map
  • News
  • Weather Widgets
  • user-avatar
    Login

    Hourly Weather Korçe

    Today, 19 January, Friday

    Time Temperature Precipitation Wind Pressure Humidity
    00:00 -3°C° 0 mm 2 mps 665 mmHg 58%
    01:00 -3°C° 0 mm 2 mps 665 mmHg 61%
    02:00 -3°C° 0 mm 2 mps 664 mmHg 63%
    03:00 -3°C° 0 mm 2 mps 664 mmHg 65%
    04:00 -3°C° 0 mm 2 mps 664 mmHg 66%
    05:00 -3°C° 0 mm 2 mps 664 mmHg 67%
    06:00 -3°C° 0 mm 2 mps 664 mmHg 68%
    07:00 -4°C° 0 mm 3 mps 664 mmHg 70%
    08:00 -1°C° 0 mm 3 mps 665 mmHg 70%
    09:00 +1°C° 0 mm 3 mps 665 mmHg 69%
    10:00 +2°C° 0 mm 3 mps 665 mmHg 69%
    11:00 +3°C° 0 mm 3 mps 665 mmHg 68%
    12:00 +4°C° 0 mm 3 mps 665 mmHg 67%
    13:00 +5°C° 0 mm 3 mps 665 mmHg 67%
    14:00 +4°C° 0 mm 3 mps 665 mmHg 72%
    15:00 +4°C° 0 mm 2 mps 665 mmHg 77%
    16:00 +4°C° 0 mm 2 mps 664 mmHg 82%
    17:00 +3°C° 0 mm 2 mps 664 mmHg 85%
    18:00 +1°C° 0 mm 3 mps 664 mmHg 88%
    19:00 0°C° 0 mm 3 mps 664 mmHg 91%
    20:00 0°C° 0 mm 3 mps 664 mmHg 91%
    21:00 0°C° 0 mm 3 mps 664 mmHg 91%
    22:00 +1°C° 0 mm 3 mps 664 mmHg 92%
    23:00 +1°C° 0 mm 3 mps 664 mmHg 92%

    Tomorrow, 20 January, Saturday

    Time Temperature Precipitation Wind Pressure Humidity
    00:00 +1°C° 0 mm 3 mps 664 mmHg 92%
    01:00 +1°C° 0 mm 3 mps 664 mmHg 92%
    02:00 +1°C° 0.1 mm 3 mps 663 mmHg 93%
    03:00 +1°C° 0.1 mm 3 mps 663 mmHg 93%
    04:00 +1°C° 0.1 mm 3 mps 663 mmHg 93%
    05:00 +1°C° 0.1 mm 3 mps 663 mmHg 94%
    06:00 +1°C° 0.1 mm 3 mps 662 mmHg 94%
    07:00 +1°C° 0.1 mm 3 mps 662 mmHg 94%
    08:00 +2°C° 0.1 mm 3 mps 662 mmHg 92%
    09:00 +3°C° 0.1 mm 3 mps 663 mmHg 90%
    10:00 +4°C° 0.1 mm 3 mps 663 mmHg 88%
    11:00 +4°C° 0.4 mm 3 mps 662 mmHg 88%
    12:00 +5°C° 0.4 mm 3 mps 662 mmHg 87%
    13:00 +5°C° 0.4 mm 3 mps 662 mmHg 86%
    14:00 +4°C° 0.5 mm 3 mps 661 mmHg 87%
    15:00 +4°C° 0.5 mm 3 mps 661 mmHg 89%
    16:00 +4°C° 0.5 mm 3 mps 661 mmHg 90%
    17:00 +4°C° 0.4 mm 2 mps 661 mmHg 91%
    18:00 +4°C° 0.4 mm 2 mps 661 mmHg 92%
    19:00 +3°C° 0.4 mm 2 mps 662 mmHg 94%
    20:00 +3°C° 0.1 mm 2 mps 662 mmHg 94%
    21:00 +4°C° 0.1 mm 1 mps 662 mmHg 94%
    22:00 +3°C° 0.1 mm 1 mps 662 mmHg 94%
    23:00 +3°C° 0.1 mm 1 mps 662 mmHg 94%

    Day after tomorrow, 21 January, Sunday

    Time Temperature Precipitation Wind Pressure Humidity
    00:00 +3°C° 0.1 mm 1 mps 662 mmHg 94%
    01:00 +3°C° 0.1 mm 1 mps 662 mmHg 94%
    02:00 +2°C° 0 mm 2 mps 661 mmHg 94%
    03:00 +1°C° 0 mm 2 mps 661 mmHg 93%
    04:00 +1°C° 0 mm 2 mps 661 mmHg 93%
    05:00 +1°C° 0 mm 2 mps 660 mmHg 93%
    06:00 +1°C° 0 mm 2 mps 660 mmHg 92%
    07:00 +1°C° 0 mm 2 mps 660 mmHg 92%
    08:00 +2°C° 0.3 mm 2 mps 660 mmHg 90%
    09:00 +3°C° 0.3 mm 2 mps 660 mmHg 89%
    10:00 +3°C° 0.3 mm 2 mps 660 mmHg 87%
    11:00 +4°C° 0.6 mm 2 mps 660 mmHg 87%
    12:00 +4°C° 0.6 mm 2 mps 659 mmHg 87%
    13:00 +5°C° 0.6 mm 1 mps 659 mmHg 87%
    14:00 +5°C° 0.5 mm 1 mps 659 mmHg 88%
    15:00 +5°C° 0.5 mm 1 mps 659 mmHg 89%
    16:00 +5°C° 0.5 mm 1 mps 659 mmHg 91%
    17:00 +4°C° 0.1 mm 1 mps 659 mmHg 92%
    18:00 +3°C° 0.1 mm 1 mps 659 mmHg 93%
    19:00 +3°C° 0.1 mm 1 mps 659 mmHg 95%
    20:00 +2°C° 0 mm 1 mps 659 mmHg 94%
    21:00 +2°C° 0 mm 1 mps 660 mmHg 94%
    22:00 +2°C° 0 mm 1 mps 660 mmHg 93%
    23:00 +1°C° 0 mm 1 mps 660 mmHg 93%

    22 January, Monday

    Time Temperature Precipitation Wind Pressure Humidity
    00:00 +1°C° 0 mm 1 mps 660 mmHg 93%
    01:00 +1°C° 0 mm 1 mps 660 mmHg 93%
    02:00 +1°C° 0 mm 1 mps 660 mmHg 93%
    03:00 0°C° 0 mm 1 mps 660 mmHg 92%
    04:00 0°C° 0 mm 1 mps 660 mmHg 92%
    05:00 0°C° 0 mm 1 mps 661 mmHg 91%
    06:00 0°C° 0 mm 1 mps 661 mmHg 91%
    07:00 0°C° 0 mm 1 mps 661 mmHg 90%
    08:00 +1°C° 0 mm 1 mps 662 mmHg 84%
    09:00 +2°C° 0 mm 2 mps 663 mmHg 78%
    10:00 +3°C° 0 mm 2 mps 664 mmHg 71%
    11:00 +4°C° 0 mm 2 mps 664 mmHg 66%
    12:00 +3°C° 0 mm 3 mps 664 mmHg 60%
    13:00 +4°C° 0 mm 3 mps 664 mmHg 55%
    14:00 +3°C° 0 mm 3 mps 664 mmHg 58%
    15:00 +4°C° 0 mm 2 mps 664 mmHg 60%
    16:00 +3°C° 0 mm 2 mps 664 mmHg 63%
    17:00 +2°C° 0 mm 2 mps 664 mmHg 66%
    18:00 +2°C° 0 mm 1 mps 665 mmHg 68%
    19:00 +1°C° 0 mm 1 mps 665 mmHg 71%
    20:00 0°C° 0 mm 1 mps 665 mmHg 72%
    21:00 0°C° 0 mm 1 mps 665 mmHg 73%
    22:00 0°C° 0 mm 1 mps 665 mmHg 74%
    23:00 0°C° 0 mm 1 mps 665 mmHg 73%

    23 January, Tuesday

    Time Temperature Precipitation Wind Pressure Humidity
    00:00 0°C° 0 mm 1 mps 665 mmHg 73%
    01:00 0°C° 0 mm 1 mps 665 mmHg 73%
    02:00 0°C° 0 mm 1 mps 665 mmHg 72%
    03:00 0°C° 0 mm 1 mps 666 mmHg 71%
    04:00 +1°C° 0 mm 1 mps 666 mmHg 69%
    05:00 +1°C° 0 mm 1 mps 666 mmHg 68%
    06:00 +1°C° 0 mm 1 mps 666 mmHg 67%
    07:00 +1°C° 0 mm 1 mps 667 mmHg 66%
    08:00 +2°C° 0 mm 1 mps 667 mmHg 62%
    09:00 +3°C° 0 mm 1 mps 668 mmHg 58%
    10:00 +5°C° 0 mm 1 mps 668 mmHg 54%
    11:00 +5°C° 0 mm 1 mps 668 mmHg 54%
    12:00 +6°C° 0 mm 1 mps 668 mmHg 53%
    13:00 +6°C° 0 mm 1 mps 669 mmHg 52%
    14:00 +6°C° 0 mm 1 mps 669 mmHg 57%
    15:00 +5°C° 0 mm 1 mps 669 mmHg 63%
    16:00 +4°C° 0 mm 1 mps 669 mmHg 68%
    17:00 +3°C° 0 mm 1 mps 669 mmHg 70%
    18:00 +2°C° 0 mm 1 mps 669 mmHg 72%
    19:00 +1°C° 0 mm 1 mps 669 mmHg 74%
    20:00 +1°C° 0 mm 1 mps 669 mmHg 75%
    21:00 +1°C° 0 mm 1 mps 670 mmHg 75%
    22:00 +1°C° 0 mm 1 mps 670 mmHg 75%
    23:00 +1°C° 0 mm 1 mps 670 mmHg 76%

    24 January, Wednesday

    Time Temperature Precipitation Wind Pressure Humidity
    00:00 -2°C° 0 mm 2 mps 670 mmHg 76%
    01:00 -2°C° 0 mm 2 mps 671 mmHg 77%
    02:00 -2°C° 0 mm 2 mps 671 mmHg 77%
    03:00 -2°C° 0 mm 2 mps 671 mmHg 76%
    04:00 -2°C° 0 mm 2 mps 671 mmHg 76%
    05:00 -2°C° 0 mm 2 mps 671 mmHg 76%
    06:00 -2°C° 0 mm 2 mps 671 mmHg 77%
    07:00 -2°C° 0 mm 2 mps 672 mmHg 77%
    08:00 -1°C° 0 mm 2 mps 673 mmHg 71%
    09:00 +2°C° 0 mm 2 mps 673 mmHg 65%
    10:00 +4°C° 0 mm 2 mps 674 mmHg 59%
    11:00 +5°C° 0 mm 2 mps 674 mmHg 56%
    12:00 +6°C° 0 mm 1 mps 674 mmHg 53%
    13:00 +7°C° 0 mm 1 mps 674 mmHg 50%
    14:00 +7°C° 0 mm 1 mps 674 mmHg 55%
    15:00 +6°C° 0 mm 1 mps 674 mmHg 60%
    16:00 +5°C° 0 mm 1 mps 673 mmHg 64%
    17:00 +4°C° 0 mm 1 mps 673 mmHg 67%
    18:00 +3°C° 0 mm 1 mps 673 mmHg 71%
    19:00 +2°C° 0 mm 1 mps 673 mmHg 74%
    20:00 +2°C° 0 mm 1 mps 673 mmHg 74%
    21:00 +1°C° 0 mm 1 mps 673 mmHg 74%
    22:00 +1°C° 0 mm 1 mps 673 mmHg 74%
    23:00 +1°C° 0 mm 1 mps 673 mmHg 73%
    Show more